Bonners Ferry, ID

11:54 AM PST on February 26, 2017 (GMT -0800)
Boundary Cnty AP, Bonners Fer

Weather History for K65S - September, 2013

Change the Weather History Date:

Saturday, September 28, 2013

  Actual Average (KSZT) Record (KSZT)
Temperature  
Mean Temperature 48 °F -  
Max Temperature 53 °F 65 °F 81 °F (1967)
Min Temperature 44 °F 37 °F 23 °F (1984)
Degree Days  
Heating Degree Days 16    
Moisture  
Dew Point 46 °F    
Average Humidity 90    
Maximum Humidity 100    
Minimum Humidity 81    
Precipitation  
Precipitation 0.55 in - - ()
Sea Level Pressure  
Sea Level Pressure 29.72 in    
Wind  
Wind Speed 2 mph (SE)    
Max Wind Speed 9 mph    
Max Gust Speed 17 mph    
Visibility 8 miles    
Events Rain    
Averages and records for this station are not official NWS values.
T = Trace of Precipitation, MM = Missing Value Source: NWS Daily Summary

Daily Weather History Graph

Daily Weather History Graph

Search for Another Location

Airport or City:

Trip Planner

Search our weather history database for the weather conditions in past years. The results will help you decide how hot, cold, wet, or windy it might be!

Date:

Astronomy

Sep. 28, 2013 Rise Set
Actual Time 6:40 AM PDT 6:29 PM PDT
Civil Twilight 6:09 AM PDT 7:00 PM PDT
Nautical Twilight 5:32 AM PDT 7:37 PM PDT
Astronomical Twilight 4:55 AM PDT 8:15 PM PDT
Moon 12:06 AM PDT (9/28) 3:14 PM PDT (9/28)
Length of Visible Light 12h 51m
Length of Day
11h 48m
Waning Crescent, 35% of the Moon is Illuminated
Sep 28
Waning Crescent
Oct 4
New
Oct 11
First Quarter
Oct 18
Full
Oct 26
Last Quarter

Hourly Weather History & Observations

Time (PDT) Temp. Windchill Dew Point Humidity Pressure Visibility Wind Dir Wind Speed Gust Speed Precip Events Conditions
12:10 AM 44.6 °F - 41.0 °F 87% 29.91 in 10.0 mi Calm Calm - N/A   Overcast
12:30 AM 44.6 °F - 41.0 °F 87% 29.91 in 10.0 mi Calm Calm - N/A   Overcast
12:50 AM 44.6 °F - 41.0 °F 87% 29.90 in 10.0 mi Calm Calm - N/A   Overcast
1:10 AM 44.6 °F - 41.0 °F 87% 29.90 in 10.0 mi Calm Calm - N/A   Overcast
1:30 AM 44.6 °F - 41.0 °F 87% 29.89 in 10.0 mi Calm Calm - N/A   Overcast
1:50 AM 44.6 °F 43.1 °F 41.0 °F 87% 29.89 in 10.0 mi SSE 3.5 mph - N/A   Overcast
2:10 AM 44.6 °F - 41.0 °F 87% 29.89 in 10.0 mi Calm Calm - N/A   Overcast
2:30 AM 44.6 °F 43.1 °F 41.0 °F 87% 29.89 in 10.0 mi SSE 3.5 mph - N/A Rain Light Rain
2:50 AM 44.6 °F - 41.0 °F 87% 29.89 in 10.0 mi Calm Calm - N/A   Overcast
3:10 AM 44.6 °F - 41.0 °F 87% 29.88 in 10.0 mi Calm Calm - N/A   Overcast
3:30 AM 44.6 °F - 41.0 °F 87% 29.87 in 10.0 mi Calm Calm - N/A   Mostly Cloudy
3:50 AM 44.6 °F - 41.0 °F 87% 29.86 in 10.0 mi Calm Calm - N/A   Overcast
4:10 AM 44.6 °F - 41.0 °F 87% 29.87 in 10.0 mi Calm Calm - N/A   Overcast
4:30 AM 44.6 °F - 41.0 °F 87% 29.86 in 9.0 mi Calm Calm - N/A   Overcast
4:50 AM 44.6 °F 42.2 °F 41.0 °F 87% 29.86 in 10.0 mi ENE 4.6 mph - N/A   Overcast
5:10 AM 44.6 °F 43.1 °F 41.0 °F 87% 29.85 in 10.0 mi South 3.5 mph - N/A   Overcast
5:30 AM 44.6 °F - 41.0 °F 87% 29.85 in 10.0 mi Calm Calm - N/A   Overcast
5:50 AM 44.6 °F - 41.0 °F 87% 29.84 in 10.0 mi Calm Calm - N/A   Overcast
6:10 AM 44.6 °F - 41.0 °F 87% 29.83 in 10.0 mi Calm Calm - N/A   Overcast
6:30 AM 44.6 °F 41.4 °F 41.0 °F 87% 29.83 in 10.0 mi SSE 5.8 mph - N/A   Overcast
6:50 AM 44.6 °F - 42.8 °F 93% 29.83 in 9.0 mi Calm Calm - N/A Rain Light Rain
7:10 AM 46.4 °F - 41.0 °F 81% 29.82 in 10.0 mi Calm Calm - N/A   Overcast
7:30 AM 44.6 °F 43.1 °F 41.0 °F 87% 29.81 in 9.0 mi SE 3.5 mph - N/A   Mostly Cloudy
7:50 AM 44.6 °F 43.1 °F 42.8 °F 93% 29.81 in 10.0 mi East 3.5 mph - N/A   Mostly Cloudy
8:10 AM 46.4 °F - 41.0 °F 81% 29.80 in 7.0 mi Calm Calm - N/A   Mostly Cloudy
8:30 AM 44.6 °F - 44.6 °F 100% 29.80 in 6.0 mi Calm Calm - 0.01 in Rain Light Rain
8:50 AM 44.6 °F - 42.8 °F 93% 29.80 in 8.0 mi Calm Calm - 0.02 in Rain Light Rain
9:10 AM 46.4 °F - 44.6 °F 93% 29.79 in 8.0 mi Calm Calm - N/A Rain Light Rain
9:30 AM 46.4 °F - 44.6 °F 93% 29.79 in 5.0 mi Calm Calm - N/A Rain Light Rain
9:50 AM 46.4 °F - 44.6 °F 93% 29.79 in 4.0 mi Calm Calm - 0.02 in Rain Light Rain
10:10 AM 46.4 °F - 44.6 °F 93% 29.78 in 8.0 mi Calm Calm - 0.01 in Rain Light Rain
10:30 AM 46.4 °F - 44.6 °F 93% 29.77 in 7.0 mi Calm Calm - 0.01 in Rain Light Rain
10:50 AM 48.2 °F - 46.4 °F 93% 29.76 in 10.0 mi Calm Calm - 0.02 in   Mostly Cloudy
11:10 AM 48.2 °F - 46.4 °F 93% 29.76 in 7.0 mi Calm Calm - N/A Rain Light Rain
11:30 AM 48.2 °F - 46.4 °F 93% 29.75 in 5.0 mi East 3.5 mph - 0.02 in Rain Light Rain
11:50 AM 48.2 °F - 46.4 °F 93% 29.75 in 4.0 mi East 3.5 mph - 0.03 in Rain Light Rain
12:10 PM 48.2 °F - 46.4 °F 93% 29.73 in 5.0 mi ENE 3.5 mph - 0.01 in Rain Light Rain
12:30 PM 48.2 °F - 46.4 °F 93% 29.72 in 5.0 mi Calm Calm - 0.02 in Rain Light Rain
12:50 PM 48.2 °F - 46.4 °F 93% 29.71 in 2.5 mi NE 4.6 mph - 0.04 in Rain Light Rain
1:10 PM 48.2 °F - 48.2 °F 100% 29.70 in 2.5 mi SE 5.8 mph - 0.01 in Rain Light Rain
1:30 PM 50.0 °F - 48.2 °F 94% 29.69 in 2.0 mi Calm Calm - 0.04 in Rain Light Rain
1:50 PM 50.0 °F - 48.2 °F 94% 29.68 in 3.0 mi ESE 3.5 mph - 0.06 in Rain Light Rain
2:10 PM 50.0 °F - 48.2 °F 94% 29.67 in 5.0 mi East 6.9 mph - N/A Rain Light Rain
2:30 PM 50.0 °F - 48.2 °F 94% 29.67 in 5.0 mi WSW 3.5 mph - 0.02 in Rain Light Rain
2:50 PM 50.0 °F - 50.0 °F 100% 29.66 in 7.0 mi Calm Calm - 0.04 in Rain Light Rain
3:10 PM 51.8 °F - 50.0 °F 94% 29.66 in 8.0 mi Calm Calm - N/A Rain Light Rain
3:30 PM 53.6 °F - 50.0 °F 88% 29.65 in 8.0 mi SE 4.6 mph - 0.01 in Rain Light Rain
3:50 PM 53.6 °F - 50.0 °F 88% 29.64 in 7.0 mi South 3.5 mph - 0.02 in Rain Light Rain
4:10 PM 53.6 °F - 50.0 °F 88% 29.64 in 8.0 mi SSW 4.6 mph - N/A Rain Light Rain
4:30 PM 53.6 °F - 50.0 °F 88% 29.63 in 10.0 mi South 6.9 mph - 0.01 in Rain Light Rain
4:50 PM 53.6 °F - 50.0 °F 88% 29.62 in 7.0 mi SSW 8.1 mph - 0.02 in Rain Light Rain
5:10 PM 53.6 °F - 50.0 °F 88% 29.62 in 8.0 mi SSW 5.8 mph - N/A Rain Light Rain
5:30 PM 53.6 °F - 50.0 °F 88% 29.61 in 6.0 mi South 4.6 mph - 0.01 in Rain Light Rain
5:50 PM 53.6 °F - 50.0 °F 88% 29.60 in 5.0 mi South 3.5 mph - 0.03 in Rain Light Rain
6:10 PM 53.6 °F - 50.0 °F 88% 29.59 in 9.0 mi SSE 5.8 mph - 0.01 in Rain Light Rain
6:30 PM 53.6 °F - 50.0 °F 88% 29.59 in 5.0 mi SSW 8.1 mph - 0.01 in Rain Light Rain
6:50 PM 53.6 °F - 50.0 °F 88% 29.59 in 7.0 mi SSE 5.8 mph - 0.03 in Rain Light Rain
7:10 PM 53.6 °F - 50.0 °F 88% 29.59 in 7.0 mi South 9.2 mph - 0.01 in Rain Light Rain
7:30 PM 53.6 °F - 50.0 °F 88% 29.58 in 7.0 mi South 9.2 mph 17.3 mph 0.01 in Rain Light Rain
7:50 PM 53.6 °F - 50.0 °F 88% 29.57 in 9.0 mi South 4.6 mph - 0.02 in Rain Light Rain
8:10 PM 53.6 °F - 50.0 °F 88% 29.57 in 5.0 mi South 6.9 mph - N/A Rain Light Rain
8:30 PM 53.6 °F - 50.0 °F 88% 29.57 in 10.0 mi Calm Calm - 0.01 in Rain Light Rain
8:50 PM 53.6 °F - 50.0 °F 88% 29.55 in 9.0 mi ESE 4.6 mph - 0.01 in Rain Light Rain
9:10 PM 53.6 °F - 50.0 °F 88% 29.53 in 10.0 mi NE 4.6 mph - 0.01 in Rain Light Rain
9:30 PM 53.6 °F - 50.0 °F 88% 29.53 in 10.0 mi SSE 5.8 mph - 0.01 in   Overcast
9:50 PM 53.6 °F - 50.0 °F 88% 29.52 in 8.0 mi South 5.8 mph - 0.02 in Rain Light Rain
10:10 PM 53.6 °F - 50.0 °F 88% 29.51 in 6.0 mi NE 4.6 mph - 0.02 in Rain Light Rain
10:30 PM 51.8 °F - 50.0 °F 94% 29.50 in 5.0 mi Calm Calm - 0.06 in Rain Light Rain
10:50 PM 51.8 °F - 50.0 °F 94% 29.50 in 5.0 mi Calm Calm - 0.10 in Rain Light Rain
11:10 PM 51.8 °F - 50.0 °F 94% 29.48 in 5.0 mi Calm Calm - 0.02 in Rain Light Rain
11:30 PM 51.8 °F - 50.0 °F 94% 29.47 in 8.0 mi SE 4.6 mph - 0.05 in Rain Light Rain
11:50 PM 51.8 °F - 50.0 °F 94% 29.46 in 7.0 mi East 3.5 mph - 0.07 in Rain Light Rain